Location: Unspecified
(17.6330°N, 0.0000°E)
Time: 03:42:03
(UTC+00:00)

A-11 Canister half - Pass Details

Date: 18 June 2019
Orbit: 1514 x 1685 km, 47.2° (Epoch: 20 July)

Event Time Altitude Azimuth Distance (km) Brightness Sun altitude
Rises 12:57:53 0° 288° (WNW) 4,869 11.8 75.5°
Reaches altitude 10° 13:03:50 10° 315° (NW) 3,842 11.5 74.2°
Maximum altitude 13:07:42 13° 339° (NNW) 3,597 11.3 73.4°
Drops below altitude 10° 13:11:33 10° 3° (N) 3,786 11.3 72.5°
Sets 13:17:21 0° 30° (NNE) 4,729 11.5 71.3°
